Liberia, Costa Rica

5:49 AM CST on August 19, 2017 (GMT -0600)
Daniel Oduber Quiros International

Weather History for MRLB - April, 2013

Change the Weather History Date:

Sunday, April 28, 2013

  Actual Average Record
Temperature  
Mean Temperature 83 °F -  
Max Temperature 96 °F 90 °F 98 °F (1998)
Min Temperature 70 °F 76 °F 69 °F (2008)
Cooling Degree Days 18    
Growing Degree Days 33 (Base 50)    
Moisture  
Dew Point 63 °F    
Average Humidity 44    
Maximum Humidity 73    
Minimum Humidity 22    
Precipitation  
Precipitation 0.00 in - - ()
Sea Level Pressure  
Sea Level Pressure 29.82 in    
Wind  
Wind Speed 7 mph ()    
Max Wind Speed 15 mph    
Max Gust Speed -    
Visibility 8.4 miles    
Events      
Averages and records for this station are not official NWS values.
T = Trace of Precipitation, MM = Missing Value Source: Averaged Metar Reports

Daily Weather History Graph

Daily Weather History Graph

Search for Another Location

Airport or City:

Trip Planner

Search our weather history database for the weather conditions in past years. The results will help you decide how hot, cold, wet, or windy it might be!

Date:

Astronomy

Apr. 28, 2013 Rise Set
Actual Time 5:25 AM CST 5:54 PM CST
Civil Twilight 5:03 AM CST 6:15 PM CST
Nautical Twilight 4:37 AM CST 6:41 PM CST
Astronomical Twilight 4:12 AM CST 7:07 PM CST
Moon 9:05 PM CST (4/28) 8:00 AM CST (4/28)
Length of Visible Light 13h 12m
Length of Day
12h 28m
Waning Gibbous, 88% of the Moon is Illuminated
Apr 28
Waning Gibbous
May 2
Last Quarter
May 9
New
May 17
First Quarter
May 24
Full

Hourly Weather History & Observations

Time (CST) Temp. Heat Index Dew Point Humidity Pressure Visibility Wind Dir Wind Speed Gust Speed Precip Events Conditions
6:00 AM 71 °F - 62 °F 67% 29.85 in 12 mi NNW 3.5 mph - -   Overcast
6:00 AM 71.6 °F - 62.6 °F 73% 29.84 in - NNW 4.6 mph - N/A   Clear
7:00 AM 80.6 °F 82.3 °F 64.4 °F 58% 29.87 in - Calm Calm - N/A   Clear
8:00 AM 86.0 °F 86.6 °F 62.6 °F 45% 29.87 in - East 11.5 mph - N/A   Clear
9:00 AM 89 °F - 60 °F 28% 29.89 in 12 mi East 9.2 mph - -   Overcast
9:00 AM 89.6 °F 89.5 °F 60.8 °F 38% 29.87 in - East 9.2 mph - N/A   Clear
10:00 AM 91.4 °F 91.4 °F 60.8 °F 36% 29.86 in - East 13.8 mph - N/A   Clear
11:00 AM 91.4 °F 91.4 °F 60.8 °F 36% 29.85 in 6.2 mi NE 11.5 mph - N/A   Mostly Cloudy
12:00 PM 94 °F - 60 °F 22% 29.84 in 12 mi NE 9.2 mph - -   Partly Cloudy
12:00 PM 93.2 °F 92.6 °F 59.0 °F 32% 29.83 in 6.2 mi NE 9.2 mph - N/A   Mostly Cloudy
1:00 PM 95.0 °F 94.4 °F 59.0 °F 30% 29.79 in 6.2 mi ESE 6.9 mph - N/A   Mostly Cloudy
2:00 PM 95.0 °F 97.0 °F 64.4 °F 36% 29.76 in 6.2 mi NW 4.6 mph - N/A   Mostly Cloudy
3:00 PM 91 °F - 62 °F 28% 29.76 in 12 mi West 15.0 mph - -   Overcast
3:00 PM 91.4 °F 92.1 °F 62.6 °F 38% 29.84 in 6.2 mi West 15.0 mph - N/A   Scattered Clouds
4:00 PM 89.6 °F 91.1 °F 64.4 °F 43% 29.74 in 6.2 mi West 12.7 mph - N/A   Scattered Clouds
5:00 PM 87.8 °F 90.4 °F 66.2 °F 49% 29.75 in 6.2 mi West 9.2 mph - N/A   Overcast
6:00 PM 85 °F - 68 °F 47% 29.78 in 12 mi West 6.9 mph - -   Overcast
6:00 PM 84.2 °F 87.3 °F 68.0 °F 58% 29.77 in 6.2 mi West 6.9 mph - N/A   Mostly Cloudy
7:00 PM 82.4 °F 85.4 °F 68.0 °F 62% 29.80 in - SW 4.6 mph - N/A   Clear
8:00 PM 82.4 °F 85.4 °F 68.0 °F 62% 29.81 in - South 2.3 mph - N/A   Clear